Anderson, SC

10:00 PM EDT on September 21, 2017 (GMT -0400)
Anderson Regional

Weather History for KAND - January, 2012

Change the Weather History Date:

Monday, January 2, 2012

  Actual Average Record
Temperature  
Mean Temperature 37 °F -  
Max Temperature 46 °F 52 °F 75 °F (1952)
Min Temperature 28 °F 34 °F 13 °F (1984)
Degree Days  
Heating Degree Days 28    
Moisture  
Dew Point 14 °F    
Average Humidity 36    
Maximum Humidity 60    
Minimum Humidity 22    
Precipitation  
Precipitation 0.00 in - - ()
Sea Level Pressure  
Sea Level Pressure 30.09 in    
Wind  
Wind Speed 12 mph (WNW)    
Max Wind Speed 22 mph    
Max Gust Speed 32 mph    
Visibility 10 miles    
Events      
Averages and records for this station are not official NWS values.
T = Trace of Precipitation, MM = Missing Value Source: NWS Daily Summary

Daily Weather History Graph

Daily Weather History Graph

Search for Another Location

Airport or City:

Trip Planner

Search our weather history database for the weather conditions in past years. The results will help you decide how hot, cold, wet, or windy it might be!

Date:

Astronomy

Jan. 02, 2012 Rise Set
Actual Time 7:37 AM EST 5:31 PM EST
Civil Twilight 7:09 AM EST 5:59 PM EST
Nautical Twilight 6:38 AM EST 6:31 PM EST
Astronomical Twilight 6:07 AM EST 7:01 PM EST
Moon 12:41 PM EST (1/2) 1:36 AM EST (1/2)
Length of Visible Light 10h 49m
Length of Day
9h 54m
Waxing Gibbous, 63% of the Moon is Illuminated
Jan 2
Waxing Gibbous
Jan 9
Full
Jan 16
Last Quarter
Jan 23
New
Jan 30
First Quarter

Hourly Weather History & Observations

Time (EST) Temp. Windchill Dew Point Humidity Pressure Visibility Wind Dir Wind Speed Gust Speed Precip Events Conditions
12:56 AM 43.0 °F 39.5 °F 26.1 °F 51% 30.09 in 10.0 mi WSW 5.8 mph - N/A   Clear
2:56 AM 39.9 °F 35.8 °F 27.0 °F 60% 30.07 in 10.0 mi West 5.8 mph - N/A   Clear
3:56 AM 41.0 °F 35.2 °F 24.1 °F 51% 30.07 in 10.0 mi WNW 9.2 mph - N/A   Clear
4:56 AM 41.0 °F 34.7 °F 19.9 °F 43% 30.07 in 10.0 mi WNW 10.4 mph - N/A   Clear
5:56 AM 39.0 °F 33.4 °F 19.0 °F 45% 30.09 in 10.0 mi WNW 8.1 mph - N/A   Clear
6:56 AM 39.0 °F 33.4 °F 16.0 °F 39% 30.09 in 10.0 mi WNW 8.1 mph - N/A   Clear
7:56 AM 37.0 °F 31.0 °F 15.1 °F 41% 30.12 in 10.0 mi West 8.1 mph - N/A   Clear
8:56 AM 39.9 °F 33.4 °F 14.0 °F 35% 30.13 in 10.0 mi West 10.4 mph - N/A   Clear
9:56 AM 42.8 °F 35.8 °F 12.2 °F 29% 30.13 in 10.0 mi WNW 13.8 mph - N/A   Clear
10:56 AM 43.0 °F 35.7 °F 10.9 °F 27% 30.13 in 10.0 mi West 15.0 mph - N/A   Clear
11:56 AM 45.0 °F 37.1 °F 12.0 °F 26% 30.08 in 10.0 mi West 19.6 mph 25.3 mph N/A   Clear
12:56 PM 46.0 °F 38.8 °F 12.0 °F 25% 30.04 in 10.0 mi West 18.4 mph 27.6 mph N/A   Clear
1:56 PM 46.4 °F 38.5 °F 10.4 °F 23% 30.01 in 10.0 mi West 21.9 mph 29.9 mph N/A   Clear
2:56 PM 46.4 °F 38.7 °F 8.6 °F 22% 29.99 in 10.0 mi West 20.7 mph 29.9 mph N/A   Clear
3:56 PM 46.0 °F 38.3 °F 10.0 °F 23% 30.00 in 10.0 mi WNW 20.7 mph 28.8 mph N/A   Clear
4:56 PM 43.0 °F 35.1 °F 10.0 °F 26% 30.01 in 10.0 mi WNW 17.3 mph 26.5 mph N/A   Clear
5:56 PM 39.9 °F 31.1 °F 8.1 °F 27% 30.05 in 10.0 mi WNW 17.3 mph 29.9 mph N/A   Clear
6:56 PM 37.9 °F 28.9 °F 7.0 °F 28% 30.07 in 10.0 mi WNW 16.1 mph 32.2 mph N/A   Clear
7:56 PM 35.1 °F 24.5 °F 12.9 °F 40% 30.11 in 10.0 mi NW 18.4 mph 28.8 mph 0.00 in   Partly Cloudy
8:56 PM 32.0 °F 20.5 °F 9.0 °F 38% 30.14 in 10.0 mi NW 18.4 mph 26.5 mph N/A   Partly Cloudy
9:56 PM 30.9 °F 20.7 °F 6.1 °F 35% 30.16 in 10.0 mi NW 13.8 mph 23.0 mph N/A   Clear
10:56 PM 28.0 °F 16.1 °F 12.0 °F 51% 30.18 in 10.0 mi WNW 16.1 mph 27.6 mph N/A   Scattered Clouds
11:56 PM 28.0 °F 17.0 °F 9.0 °F 45% 30.18 in 10.0 mi WNW 13.8 mph - N/A   Clear